This demonstration page uses our WeatherBlox Daily Observations layout. Learn more.

38.88101, -77.10428

Hourly Observations for March 1, 2017

Temp ( °F °C ) Dew Point ( °F °C ) Humidity (%) Winds ( mph kmh ) Pressure ( in mb ) Visibility ( mi km ) Precip ( " mm )
12:52 am 00:52 Cloudy with Light Rain 57 13.9 56 13.3 96 96 S 8 13 29.97 1015 7 11.265408 0.01 0.254
1:52 am 01:52 Cloudy 57 13.9 56 13.3 96 96 S 8 13 29.94 1014 7 11.265408 0.001 0.001
2:42 am 02:42 Cloudy with Mist and Fog 57 14 57 14 100 100 SSW 10 17 29.94 1014 5 8.04672 0 0
2:52 am 02:52 Cloudy with Mist and Fog 57 13.9 57 13.9 100 100 SSW 10 17 29.91 1013 5 8.04672 0 0
3:16 am 03:16 Cloudy with Mist and Fog 57 14 57 14 100 100 S 7 11 29.91 1013 6 9.656064 0 0
3:52 am 03:52 Cloudy with Mist and Fog 57 13.9 57 13.9 100 100 S 10 17 29.88 1012 6 9.656064 0 0
4:15 am 04:15 Cloudy 57 13.9 57 13.9 100 100 S 14 22 29.88 1012 8 12.874752 0 0
4:52 am 04:52 Cloudy 57 13.9 57 13.9 100 100 S 9 15 29.85 1011 8 12.874752 0 0
5:29 am 05:29 Cloudy 58 14.4 57 13.9 97 97 S 12 19 29.83 1010 10 16.09344 0 0
5:52 am 05:52 Cloudy 58 14.4 57 13.9 97 97 S 14 22 29.83 1010 10 16.09344 0 0
6:52 am 06:52 Cloudy 60 15.6 58 14.4 93 93 SSW 14 22 29.8 1009 10 16.09344 0 0
7:52 am 07:52 Cloudy 61 16.1 58 14.4 90 90 S 17 28 29.77 1008 10 16.09344 0 0
8:52 am 08:52 Cloudy 62 16.7 59 15 90 90 SSW 21 33 29.74 1007 10 16.09344 0 0
9:52 am 09:52 Cloudy 65 18.3 60 15.6 84 84 SSW 18 30 29.71 1006 10 16.09344 0 0
10:52 am 10:52 Cloudy 69 20.6 61 16.1 76 76 SSW 20 31 29.68 1005 10 16.09344 0 0
11:52 am 11:52 Mostly Cloudy 74 23.3 62 16.7 67 67 SSW 21 33 29.65 1004 10 16.09344 0 0
12:52 pm 12:52 Cloudy 77 25 58 14.4 52 52 SSW 26 43 29.59 1002 10 16.09344 0 0
1:30 pm 13:30 Cloudy 81 27 57 14 45 45 SW 24 39 29.59 1002 10 16.09344 0 0
1:49 pm 13:49 Cloudy with Light Rain 73 23 59 15 61 61 W 39 63 29.71 1006 1.5 2.414016 0.001 0.001
1:52 pm 13:52 Cloudy with Heavy Rain 70 21.1 60 15.6 71 71 W 26 43 29.68 1005 2.5 4.02336 0.001 0.001
1:54 pm 13:54 Cloudy with Heavy Rain 70 21 61 16 73 73 W 17 28 29.68 1005 4 6.437376 0 0
2:00 pm 14:00 Cloudy 70 21 61 16 73 73 W 23 37 29.71 1006 7 11.265408 0 0
2:52 pm 14:52 Cloudy 72 22.2 51 10.6 48 48 WSW 14 22 29.62 1003 10 16.09344 0.01 0.254
3:52 pm 15:52 Cloudy with Light Rain 69 20.6 54 12.2 59 59 S 20 31 29.59 1002 10 16.09344 0.001 0.001
4:52 pm 16:52 Mostly Cloudy 69 20.6 51 10.6 53 53 SSW 23 37 29.59 1002 10 16.09344 0.001 0.001
5:52 pm 17:52 Cloudy 69 20.6 51 10.6 53 53 SSW 23 37 29.59 1002 10 16.09344 0.001 0.001
6:52 pm 18:52 Cloudy with Rain 59 15 55 13 88 88 S 5 7 30.15 1021 6 9.656064 0 0
7:52 pm 19:52 Cloudy 65 18.3 53 11.7 66 66 SSW 21 33 29.56 1001 10 16.09344 0 0
8:52 pm 20:52 Cloudy 64 17.8 54 12.2 70 70 SSW 20 31 29.59 1002 10 16.09344 0 0
9:52 pm 21:52 Cloudy 63 17.2 54 12.2 73 73 SSW 16 26 29.59 1002 10 16.09344 0 0
10:52 pm 22:52 Cloudy 63 17.2 54 12.2 73 73 SSW 21 33 29.56 1001 10 16.09344 0 0
11:52 pm 23:52 Cloudy 62 16.7 55 12.8 78 78 SW 14 22 29.59 1002 10 16.09344 0 0

Powered by AerisWeather